Regional Weather Roundup
Issued by NWS

Home | Current Version | Previous Version | Text Only | Print | Product List | Glossary On
Versions: 1 2 3 4 5 6 7 8 9 10 11 12 13 14 15 16 17 18 19 20 21 22 23 24 25 26 27
000
ASUS42 KTBW 080616
RWRFL
FLORIDA REGIONAL WEATHER ROUNDUP
NATIONAL WEATHER SERVICE TAMPA BAY RUSKIN FL
100 AM EST THU DEC 08 2016

NOTE: "FAIR" INDICATES FEW OR NO CLOUDS BELOW 12,000 FEET WITH NO
SIGNIFICANT WEATHER AND/OR OBSTRUCTIONS TO VISIBILITY.

FLZ001>010-012>015-112-114-115-080700-
PANHANDLE FLORIDA

CITY           SKY/WX    TMP DP  RH WIND       PRES   REMARKS
PENSACOLA      CLEAR     52  49  89 N5        30.16S
PENSACOLA NAS  MOCLDY    54  50  86 N5        30.16R
MILTON NAS     MOCLDY    47  46  97 N5        30.17  WCI  45
CRESTVIEW      CLOUDY    43  41  93 CALM      30.17S
DUKE FIELD     PTCLDY    44  43  94 NW2       30.16S
VALPARAISO     CLEAR     48  46  93 N2        30.15F
MARY ESTHER    CLEAR     49  46  90 N3        30.15R
TRI COUNTY     FAIR      46  46 100 CALM      30.16
PANAMA CITY    FAIR      50  47  89 N5        30.14S
TYNDALL AFB    CLEAR     53  48  86 NE5       30.14F
APALACHICOLA   CLEAR     53  51  93 N7        30.13F

STATION/POSITION SKY/WX   TEMP    WIND        PRES    WAVE   SWELL
                          AIR SEA DIR/SP/G            HT/PER HT/PER
                          (F)     (DEG/KT/KT) (MB)    (FT/S) (FT/S)
29.2N   88.2W              67 75   70/  6/ 10 1020.6
PANAMA CITY BEAC              68   30/  6/  8 1021.1F
TOWER C          NOT AVBL

$$
FLZ011-016>038-118-127-128-134-139-239-080700-
NORTH FLORIDA

CITY           SKY/WX    TMP DP  RH WIND       PRES   REMARKS
MARIANNA       CLEAR     47  46  97 S3        30.14S
TALLAHASSEE    CLEAR     46  45  96 CALM      30.13F
PERRY          CLEAR     51  49  94 CALM      30.14S
CROSS CITY     CLEAR     48  48 100 CALM      30.12F FOG
LAKE CITY      FAIR      50  50 100 CALM      30.12S
GAINESVILLE    CLEAR     54  52  93 NW5       30.11F
WILLISTON      CLEAR     55  55 100 CALM      30.12F FOG
PALATKA        FOG       50  50 100 W5        30.12S VSB 1/2
MAYPORT NAS    CLEAR     57  53  86 NW7       30.10S
JACKSONVILLE   CLEAR     54  53  97 NW3       30.10F
FERNANDINA BEA FAIR      57  54  88 NW7       30.09S
ST AUGUSTINE   CLEAR     58  56  93 W6        30.11S
PALM COAST     FAIR      56  56 100 MISG      30.11R

STATION/POSITION SKY/WX   TEMP    WIND        PRES    WAVE   SWELL
                          AIR SEA DIR/SP/G            HT/PER HT/PER
                          (F)     (DEG/KT/KT) (MB)    (FT/S) (FT/S)
SHELL POINT      NOT AVBL
KEATON BEACH     NOT AVBL
CEDAR KEY        NOT AVBL
FERNANDINA                    69  280/  9/ 12 1019.1F
30.7N   81.3W                 66                N/A     2/11
MAYPORT                       67  310/  8/ 11 1019.2S
ST AUGUSTINE     NOT AVBL

$$
FLZ040-043>046-052-053-057-058-063-144-080700-
INTERIOR CENTRAL FLORIDA

CITY           SKY/WX    TMP DP  RH WIND       PRES   REMARKS
OCALA            N/A     50  46  87 CALM      30.12S VSB 1/4
THE VILLAGES   FOG       55  55 100 CALM      30.02S VSB 0
LEESBURG       CLEAR     60  57  89 NW5       30.12S
SANFORD        CLEAR     59  57  93 NW8       30.10S
ORLANDO EXEC   CLEAR     62  59  90 NW5       30.10F
ORLANDO INTL   PTCLDY    62  58  86 NW6       30.11S
KISSIMMEE      CLEAR     60  58  92 NW6       30.12S
WINTER HAVEN   CLEAR     61  58  90 NW7       30.11F
LAKELAND       CLEAR     59  59 100 CALM      30.11F
BARTOW         FAIR      59  59 100 CALM      30.11F
OKEECHOBEE     CLEAR     59  59 100 NW3       30.09S FOG

$$
FLZ041-047-054-059-064-141-147-080700-
EAST CENTRAL FLORIDA

CITY           SKY/WX    TMP DP  RH WIND       PRES   REMARKS
DAYTONA BEACH  PTCLDY    60  59  96 NW8       30.10S
DELAND         CLEAR     59  57  94 NW8       30.10S
JFK SPACE CTR  FOG       61  60  96 NW3       30.07F VSB 1/2
CAPE CANAVERAL CLEAR     64  63  94 NW6       30.07S
PATRICK AFB    CLEAR     66  64  92 W10       30.08S
MELBOURNE      PTCLDY    62  62 100 W8        30.09S FOG
VERO BEACH     CLEAR     59  59 100 CALM      30.07F
FT PIERCE      FOG       61  60  97 CALM      30.07F VSB 1
STUART         CLEAR     70  66  88 CALM      30.08F

STATION/POSITION SKY/WX   TEMP    WIND        PRES    WAVE   SWELL
                          AIR SEA DIR/SP/G            HT/PER HT/PER
                          (F)     (DEG/KT/KT) (MB)    (FT/S) (FT/S)
TRIDENT PIER                  73  290/  5/  7 1018.7R
28.4N   80.5W                 73                N/A     1/13

$$
FLZ050-056-061-142-242-148-248-149-249-151-251-155-255-
160-260-080700-
WEST CENTRAL FLORIDA

CITY           SKY/WX    TMP DP  RH WIND       PRES   REMARKS
CRYSTAL RIVER  CLOUDY    50  50 100 CALM      30.12S FOG
INVERNESS      FOG       50  50 100 CALM      30.13R VSB 1/2
BROOKSVILLE      N/A    N/A N/A N/A MISG        N/A
CLEARWATER AIR FAIR      59  59 100 CALM      30.10F
ST PETE CLEARW CLEAR     64  60  87 N7        30.10F
TAMPA INTL     CLEAR     61  59  93 N5        30.11F
TAMPA EXEC     FOG       55  54  94 CALM      30.12S VSB 3/4
PLANT CITY     CLEAR     61  59  94 N5        30.12F
MACDILL AFB    CLEAR     57  56  99 NE6       30.10F
PETER O KNIGHT PTCLDY    63  63 100 CALM      30.11F
ST PETERSBURG    N/A    N/A N/A N/A MISG      30.08F
SARASOTA       CLEAR     61  59  93 CALM      30.09F
VENICE         FAIR      63  63 100 NE3       30.11S

STATION/POSITION SKY/WX   TEMP    WIND        PRES    WAVE   SWELL
                          AIR SEA DIR/SP/G            HT/PER HT/PER
                          (F)     (DEG/KT/KT) (MB)    (FT/S) (FT/S)
CLEARWATER BEACH              71  350/  7/  9 1019.7F
MIDDLE TAMPA BAY                   30/  9/ 10 1019.8F
VENICE           NOT AVBL

$$
FLZ066-069-070-075>078-162-262-165-265-080700-
SOUTHWEST FLORIDA AND KEYS

CITY           SKY/WX    TMP DP  RH WIND       PRES   REMARKS
PUNTA GORDA    CLEAR     62  61  96 NE5       30.11F
FT MYERS       CLEAR     67  62  84 N6        30.07F
SOUTHWEST INTL PTCLDY    67  62  84 N6        30.08F
NAPLES         MOCLDY    70  64  81 NE6       30.07F
MARCO ISLAND   CLOUDY    70  63  78 N6        30.08F
MARATHON       PTCLDY    80  74  81 N5        30.05F
KEY WEST NAS   MOCLDY    75  72  90 NE7       30.06F
KEY WEST INTL    N/A     76  76 100 N6        30.07F

STATION/POSITION SKY/WX   TEMP    WIND        PRES    WAVE   SWELL
                          AIR SEA DIR/SP/G            HT/PER HT/PER
                          (F)     (DEG/KT/KT) (MB)    (FT/S) (FT/S)
NAPLES                        74              1018.5F
DRY TORTUGAS     NOT AVBL

$$
FLZ067-068-071>074-168-172>174-080700-
SOUTHEAST FLORIDA

CITY           SKY/WX    TMP DP  RH WIND       PRES   REMARKS
W PALM BEACH   PTCLDY    73  69  87 CALM      30.07F
FT LAUDER-EXEC PTCLDY    75  71  87 N3        30.06F
FT LAUDERDALE  HVY RAIN  75  73  93 VRB6      30.05F VSB 1
POMPANO BEACH  MOCLDY    75  72  90 N3        30.06F FOG
PEMBROKE PINES CLOUDY    77  74  90 CALM      30.07F
OPA LOCKA      CLOUDY    76  74  93 S3        30.06F
MIAMI          CLOUDY    74  71  91 NE7       30.06F
WEST KENDALL   CLOUDY    75  74  96 W6        30.06F
HOMESTEAD      CLOUDY    75  75 100 W3        30.05F

STATION/POSITION SKY/WX   TEMP    WIND        PRES    WAVE   SWELL
                          AIR SEA DIR/SP/G            HT/PER HT/PER
                          (F)     (DEG/KT/KT) (MB)    (FT/S) (FT/S)
PORT EVERGLADES            78      40/  3/  6 1017.9F
VIRGINIA KEY                  84   20/  2/  4 1018.4F
LAKE WORTH                    79   60/  6/  7 1018.0F

$$





USA.gov is the U.S. government's official web portal to all federal, state and local government web resources and services.